EN

Hourly Weather 1-e Maya

Today, 13 June, Sunday

Time Temperature Precipitation Wind Pressure Humidity
00:00 +14°C° 0.1 mm 0 mps 745 mmHg 93%
01:00 +14°C° 0 mm 0 mps 745 mmHg 94%
02:00 +14°C° 0 mm 0 mps 744 mmHg 94%
03:00 +13°C° 0 mm 0 mps 744 mmHg 95%
04:00 +14°C° 0.1 mm 0 mps 744 mmHg 94%
05:00 +15°C° 0.1 mm 0 mps 744 mmHg 94%
06:00 +15°C° 0.1 mm 0 mps 744 mmHg 94%
07:00 +16°C° 0.1 mm 0 mps 744 mmHg 91%
08:00 +19°C° 0.1 mm 1 mps 745 mmHg 88%
09:00 +20°C° 0.1 mm 1 mps 745 mmHg 85%
10:00 +21°C° 0.4 mm 1 mps 745 mmHg 81%
11:00 +22°C° 0.4 mm 1 mps 745 mmHg 77%
12:00 +23°C° 0.4 mm 2 mps 745 mmHg 73%
13:00 +23°C° 0.5 mm 2 mps 745 mmHg 71%
14:00 +24°C° 0.5 mm 2 mps 745 mmHg 70%
15:00 +24°C° 0.5 mm 2 mps 745 mmHg 68%
16:00 +24°C° 0.5 mm 2 mps 745 mmHg 72%
17:00 +23°C° 0.5 mm 2 mps 745 mmHg 76%
18:00 +23°C° 0.5 mm 2 mps 745 mmHg 81%
19:00 +20°C° 0.1 mm 2 mps 745 mmHg 84%
20:00 +19°C° 0.1 mm 2 mps 746 mmHg 88%
21:00 +18°C° 0.1 mm 1 mps 746 mmHg 92%
22:00 +18°C° 0 mm 1 mps 746 mmHg 93%
23:00 +16°C° 0 mm 1 mps 747 mmHg 93%

Tomorrow, 14 June, Monday

Time Temperature Precipitation Wind Pressure Humidity
00:00 +16°C° 0 mm 1 mps 747 mmHg 94%
01:00 +16°C° 0 mm 1 mps 747 mmHg 94%
02:00 +16°C° 0 mm 2 mps 747 mmHg 94%
03:00 +16°C° 0 mm 2 mps 748 mmHg 94%
04:00 +16°C° 0 mm 1 mps 748 mmHg 93%
05:00 +18°C° 0 mm 1 mps 748 mmHg 92%
06:00 +18°C° 0 mm 1 mps 749 mmHg 92%
07:00 +20°C° 0 mm 1 mps 749 mmHg 84%
08:00 +22°C° 0 mm 1 mps 749 mmHg 77%
09:00 +23°C° 0 mm 1 mps 750 mmHg 69%
10:00 +24°C° 0.1 mm 2 mps 750 mmHg 66%
11:00 +25°C° 0.1 mm 2 mps 750 mmHg 62%
12:00 +26°C° 0.1 mm 2 mps 750 mmHg 59%
13:00 +27°C° 0.5 mm 2 mps 750 mmHg 59%
14:00 +27°C° 0.5 mm 1 mps 750 mmHg 59%
15:00 +27°C° 0.5 mm 1 mps 750 mmHg 58%
16:00 +27°C° 0.4 mm 1 mps 750 mmHg 63%
17:00 +26°C° 0.4 mm 1 mps 750 mmHg 67%
18:00 +26°C° 0.4 mm 1 mps 750 mmHg 71%
19:00 +24°C° 0.2 mm 1 mps 750 mmHg 76%
20:00 +22°C° 0.2 mm 1 mps 750 mmHg 81%
21:00 +20°C° 0.2 mm 1 mps 750 mmHg 86%
22:00 +18°C° 0 mm 0 mps 750 mmHg 87%
23:00 +17°C° 0 mm 0 mps 750 mmHg 89%

Day after tomorrow, 15 June, Tuesday

Time Temperature Precipitation Wind Pressure Humidity
00:00 +17°C° 0 mm 0 mps 750 mmHg 90%
01:00 +16°C° 0 mm 0 mps 750 mmHg 91%
02:00 +18°C° 0 mm 1 mps 750 mmHg 92%
03:00 +18°C° 0 mm 1 mps 750 mmHg 93%
04:00 +19°C° 0 mm 1 mps 750 mmHg 91%
05:00 +17°C° 0 mm 0 mps 750 mmHg 90%
06:00 +18°C° 0 mm 0 mps 750 mmHg 88%
07:00 +20°C° 0.1 mm 0 mps 750 mmHg 82%
08:00 +21°C° 0.1 mm 0 mps 750 mmHg 77%
09:00 +23°C° 0.1 mm 0 mps 750 mmHg 71%
10:00 +24°C° 0.4 mm 0 mps 749 mmHg 66%
11:00 +25°C° 0.4 mm 0 mps 749 mmHg 61%
12:00 +28°C° 0.4 mm 1 mps 749 mmHg 56%
13:00 +28°C° 0 mm 1 mps 748 mmHg 54%
14:00 +28°C° 0 mm 1 mps 748 mmHg 53%
15:00 +28°C° 0 mm 1 mps 747 mmHg 51%
16:00 +27°C° 0.2 mm 1 mps 747 mmHg 60%
17:00 +26°C° 0.2 mm 1 mps 747 mmHg 69%
18:00 +24°C° 0.2 mm 1 mps 746 mmHg 78%
19:00 +23°C° 0.4 mm 1 mps 746 mmHg 81%
20:00 +22°C° 0.4 mm 1 mps 746 mmHg 84%
21:00 +21°C° 0.4 mm 1 mps 746 mmHg 87%
22:00 +21°C° 0.2 mm 1 mps 746 mmHg 89%
23:00 +20°C° 0.2 mm 1 mps 746 mmHg 91%

16 June, Wednesday

Time Temperature Precipitation Wind Pressure Humidity
00:00 +20°C° 0.2 mm 1 mps 745 mmHg 92%
01:00 +19°C° 0.7 mm 1 mps 745 mmHg 93%
02:00 +19°C° 0.7 mm 1 mps 745 mmHg 94%
03:00 +18°C° 0.7 mm 1 mps 745 mmHg 95%
04:00 +19°C° 0.2 mm 1 mps 745 mmHg 95%
05:00 +19°C° 0.2 mm 1 mps 746 mmHg 95%
06:00 +20°C° 0.2 mm 1 mps 746 mmHg 94%
07:00 +20°C° 0.1 mm 2 mps 746 mmHg 88%
08:00 +21°C° 0.1 mm 2 mps 746 mmHg 81%
09:00 +24°C° 0.1 mm 3 mps 746 mmHg 74%
10:00 +25°C° 0.2 mm 3 mps 746 mmHg 68%
11:00 +26°C° 0.2 mm 3 mps 746 mmHg 61%
12:00 +27°C° 0.2 mm 4 mps 746 mmHg 54%
13:00 +26°C° 0.1 mm 4 mps 747 mmHg 56%
14:00 +26°C° 0.1 mm 4 mps 747 mmHg 58%
15:00 +25°C° 0.1 mm 4 mps 747 mmHg 60%
16:00 +23°C° 0 mm 4 mps 748 mmHg 63%
17:00 +23°C° 0 mm 4 mps 748 mmHg 65%
18:00 +23°C° 0 mm 5 mps 748 mmHg 67%
19:00 +21°C° 0 mm 4 mps 749 mmHg 70%
20:00 +19°C° 0 mm 3 mps 750 mmHg 72%
21:00 +17°C° 0 mm 2 mps 750 mmHg 75%
22:00 +16°C° 0 mm 2 mps 751 mmHg 77%
23:00 +15°C° 0 mm 2 mps 751 mmHg 79%

17 June, Thursday

Time Temperature Precipitation Wind Pressure Humidity
00:00 +14°C° 0 mm 2 mps 752 mmHg 80%
01:00 +13°C° 0 mm 2 mps 752 mmHg 78%
02:00 +13°C° 0 mm 2 mps 753 mmHg 76%
03:00 +12°C° 0 mm 2 mps 753 mmHg 74%
04:00 +13°C° 0 mm 2 mps 753 mmHg 73%
05:00 +13°C° 0 mm 2 mps 754 mmHg 72%
06:00 +14°C° 0 mm 2 mps 754 mmHg 70%
07:00 +16°C° 0 mm 2 mps 755 mmHg 63%
08:00 +18°C° 0 mm 2 mps 755 mmHg 56%
09:00 +20°C° 0 mm 2 mps 755 mmHg 49%
10:00 +21°C° 0 mm 2 mps 756 mmHg 45%
11:00 +23°C° 0 mm 2 mps 756 mmHg 41%
12:00 +24°C° 0 mm 3 mps 756 mmHg 38%
13:00 +25°C° 0 mm 3 mps 756 mmHg 37%
14:00 +25°C° 0 mm 3 mps 756 mmHg 37%
15:00 +25°C° 0 mm 3 mps 756 mmHg 36%
16:00 +25°C° 0 mm 3 mps 756 mmHg 41%
17:00 +24°C° 0 mm 3 mps 756 mmHg 46%
18:00 +24°C° 0 mm 2 mps 756 mmHg 51%
19:00 +21°C° 0 mm 2 mps 757 mmHg 59%
20:00 +18°C° 0 mm 2 mps 757 mmHg 68%
21:00 +16°C° 0 mm 2 mps 757 mmHg 77%
22:00 +15°C° 0 mm 2 mps 757 mmHg 79%
23:00 +15°C° 0 mm 2 mps 758 mmHg 80%

18 June, Friday

Time Temperature Precipitation Wind Pressure Humidity
00:00 +14°C° 0 mm 2 mps 758 mmHg 82%
01:00 +14°C° 0 mm 2 mps 758 mmHg 84%
02:00 +13°C° 0 mm 1 mps 758 mmHg 86%
03:00 +13°C° 0 mm 1 mps 759 mmHg 87%
04:00 +14°C° 0 mm 1 mps 759 mmHg 83%
05:00 +14°C° 0 mm 1 mps 759 mmHg 80%
06:00 +15°C° 0 mm 1 mps 759 mmHg 76%
07:00 +18°C° 0 mm 1 mps 760 mmHg 68%
08:00 +20°C° 0 mm 1 mps 760 mmHg 61%
09:00 +22°C° 0 mm 1 mps 760 mmHg 53%
10:00 +23°C° 0 mm 1 mps 760 mmHg 49%
11:00 +24°C° 0 mm 1 mps 760 mmHg 45%
12:00 +26°C° 0 mm 1 mps 759 mmHg 41%
13:00 +26°C° 0 mm 1 mps 759 mmHg 40%
14:00 +26°C° 0 mm 1 mps 759 mmHg 40%
15:00 +27°C° 0 mm 1 mps 759 mmHg 40%
16:00 +26°C° 0 mm 1 mps 759 mmHg 45%
17:00 +26°C° 0 mm 1 mps 759 mmHg 50%
18:00 +25°C° 0 mm 1 mps 758 mmHg 55%
19:00 +23°C° 0 mm 1 mps 758 mmHg 64%
20:00 +21°C° 0 mm 1 mps 758 mmHg 72%
21:00 +19°C° 0 mm 1 mps 758 mmHg 80%
22:00 +18°C° 0 mm 1 mps 759 mmHg 82%
23:00 +16°C° 0 mm 1 mps 759 mmHg 85%
Show more